+ View the NASA Portal
+ Center for Near-Earth Object Studies
IMPORTANT:
The SSD Announcement email list is now available. Major changes are coming in the near future, including possible hostname and/or URL changes. To be notified of such changes, subscribe to this email list.
Please visit
this page
for more details.
Don't show this message again
JPL Small-Body Database Browser
Search:
[
help
]
379480 (2010 EQ35)
Classification:
Main-belt Asteroid
SPK-ID:
2379480
[
Ephemeris
|
Orbit Diagram
|
Orbital Elements
|
Mission Design
|
Physical Parameters
|
Discovery Circumstances
|
Close-Approach Data
]
[ show orbit diagram ]
Orbital Elements at Epoch 2458600.5 (2019-Apr-27.0) TDB
Reference:
JPL 13
(heliocentric ecliptic J2000)
Element
Value
Uncertainty (1-sigma)
Units
e
.04670794885995996
6.4584e-08
a
3.110902760028049
4.9362e-08
au
q
2.96559887300435
2.1315e-07
au
i
9.135177483950006
9.3188e-06
deg
node
172.4133398993078
3.8845e-05
deg
peri
297.1460616958555
0.0001081
deg
M
293.6619918239792
0.00010041
deg
t
p
2458969.807398345425
(2020-Apr-30.30739835)
0.00056194
TDB
period
2004.140116049051
5.49
4.7701e-05
1.306e-07
d
yr
n
.1796281592874363
4.2753e-09
deg/d
Q
3.256206647051747
5.1667e-08
au
Orbit Determination Parameters
# obs. used (total)
121
data-arc span
8063 days (22.08 yr)
first obs. used
1996-09-08
last obs. used
2018-10-06
planetary ephem.
DE431
SB-pert. ephem.
SB431-N16
condition code
0
norm. resid. RMS
.65473
source
ORB
producer
Otto Matic
solution date
2019-Jul-14 14:12:49
Additional Information
Earth MOID
= 1.99575 au
Jupiter MOID
= 1.79988 au
T_jup
= 3.198
[ show covariance matrix ]
[
Ephemeris
|
Orbit Diagram
|
Orbital Elements
|
Mission Design
|
Physical Parameters
|
Discovery Circumstances
|
Close-Approach Data
]
Physical Parameter Table
Parameter
Symbol
Value
Units
Sigma
Reference
Notes
absolute magnitude
H
16.2
n/a
MPO455731
379480 (2010 EQ35)
Discovered 1999-Mar-06 by Spacewatch at Kitt Peak
Reference:
Last Updated:
2013-11-20
[ show close-approach data ]
Alternate Designations
2010 EQ35
= 1999 EM1 = 2007 TK290
[
Ephemeris
|
Orbit Diagram
|
Orbital Elements
|
Mission Design
|
Physical Parameters
|
Discovery Circumstances
|
Close-Approach Data
]
2019-Dec-11 20:53 UT
(server date/time)
Site Manager:
Ryan S. Park
Webmaster
:
Alan B. Chamberlin